[[{"header":{"parameterUnit":"m.s-1","parameterCategory":1,"la1":30.2991,"la2":30.254,"lo1":-89.0895,"lo2":-89.0444,"dy":0.0017,"dx":0.0017,"nx":28,"ny":28,"refTime":"2025-08-02T09:00:00:Z","depth":0,"parameterNumber":2,"parameterNumberName":"U-component_of_WINDS"},"data":[0,0,0,0,0,0,0,0,0,0,0,0,0,0,0,0,0,0,0,0,0,0,0,0,0,0,0,0,0,0,0,0,0,0,0,0,0,0,0,0,0,0,0,0,0,0,0,0,0,0,0,0,0,0,0,0,0,0,-1.2079,-1.2079,0,-1.2025,-1.2025,-1.2024,-1.2011,-1.2012,-1.2012,-1.2012,-1.1954,-1.1952,-1.195,0,0,0,0,0,0,0,0,0,0,0,0,0,-1.2166,-1.2165,-1.2079,-1.2079,-1.2078,-1.2026,-1.2025,-1.2024,-1.2011,-1.2012,-1.2012,-1.2013,-1.1955,-1.1952,-1.195,0,0,0,0,0,0,0,0,0,0,0,0,0,-1.2122,-1.2164,-1.2079,-1.2065,-1.2063,-1.2026,-1.2025,-1.2024,-1.2011,-1.2012,-1.2012,-1.2013,-1.1955,-1.1952,-1.195,-1.1921,0,0,-1.1941,-1.194,0,0,0,0,0,0,0,0,-1.2124,-1.2119,-1.2068,-1.2066,-1.2064,-1.2026,-1.2034,-1.1989,-1.2011,-1.2031,-1.2012,-1.2013,-1.1977,-1.1972,-1.1961,-1.1918,-1.1916,-1.1941,-1.1939,-1.1938,-1.1937,0,0,0,0,0,0,0,-1.2128,-1.2121,-1.2058,-1.2067,-1.2065,-1.206,-1.2054,-1.2026,-1.2001,-1.2029,-1.2028,-1.2022,-1.1976,-1.1964,-1.196,-1.1915,-1.1941,-1.1938,-1.1937,-1.1935,-1.1844,-1.1843,0,0,0,0,0,0,-1.2134,-1.2124,-1.206,-1.2056,-1.2096,-1.2058,-1.2052,-1.2037,-1.2002,-1.1997,-1.2022,-1.2022,-1.1968,-1.1963,-1.1958,-1.192,-1.1938,-1.1935,-1.1934,-1.1845,-1.1844,-1.1843,0,0,0,0,0,0,-1.2136,-1.2128,-1.2062,-1.209,-1.2081,-1.2056,-1.204,-1.2036,-1.2024,-1.1996,-1.1991,-1.2014,-1.1969,-1.1962,-1.193,-1.1918,-1.1934,-1.1931,-1.1845,-1.1844,-1.1843,-1.1847,0,0,0,0,0,0,-1.2138,-1.2129,-1.2119,-1.209,-1.2079,-1.2037,-1.2039,-1.2035,-1.2019,-1.2019,-1.1988,-1.1983,-1.1969,-1.1934,-1.1927,-1.1915,-1.1929,-1.1846,-1.1845,-1.1844,-1.1848,-1.1846,-1.1844,0,0,0,0,0,-1.2141,-1.2122,-1.2118,-1.2111,-1.2067,-1.2036,-1.203,-1.2015,-1.2019,-1.2007,-1.1989,-1.1984,-1.1921,-1.1931,-1.1923,-1.1909,-1.1847,-1.1845,-1.1844,-1.1848,-1.1846,-1.1845,0,0,0,0,0,0,-1.2149,-1.2118,-1.2114,-1.2084,-1.2063,-1.2034,-1.202,-1.2014,-1.199,-1.199,-1.1971,-1.1964,-1.1934,-1.1918,-1.1931,-1.1879,-1.1884,-1.188,-1.189,-1.1888,-1.1886,-1.189,-1.1927,0,0,0,0,0,-1.2148,-1.2127,-1.21,-1.2076,-1.2066,-1.2045,-1.2031,-1.2021,-1.1997,-1.1988,-1.1968,-1.1944,-1.1919,-1.1903,-1.1878,-1.1845,-1.1837,-1.1832,-1.183,-1.1829,-1.1826,-1.1806,-1.1802,-1.1838,-1.1838,-1.1838,0,0,-1.2144,-1.2124,-1.2112,-1.2077,-1.206,-1.2037,-1.2037,-1.2013,-1.1995,-1.1984,-1.1953,-1.1937,-1.191,-1.1877,-1.1862,-1.1863,-1.1815,-1.1827,-1.1826,-1.1824,-1.1804,-1.18,-1.1797,-1.1837,-1.1837,-1.1837,0,0,-1.2126,-1.211,-1.2087,-1.207,-1.2043,-1.2029,-1.2024,-1.1995,-1.1984,-1.1953,-1.1944,-1.1921,-1.1879,-1.1859,-1.1843,-1.1816,-1.1809,-1.1808,-1.18,-1.178,-1.1778,-1.1775,-1.1764,-1.176,-1.1806,-1.1806,-1.1806,0,-1.2124,-1.2091,-1.2077,-1.2053,-1.2037,-1.2026,-1.2003,-1.1986,-1.1952,-1.1941,-1.1943,-1.1889,-1.1869,-1.1831,-1.1824,-1.1813,-1.1804,-1.1812,-1.1779,-1.1777,-1.1774,-1.1763,-1.1759,-1.1806,-1.1806,-1.1806,-1.1806,0,-1.209,-1.2066,-1.2051,-1.202,-1.2002,-1.1979,-1.1959,-1.1943,-1.1934,-1.1919,-1.1886,-1.1863,-1.1832,-1.1823,-1.1814,-1.1782,-1.1784,-1.1783,-1.1788,-1.1771,-1.176,-1.1756,-1.1806,-1.1806,-1.1806,-1.1806,0,0,-1.2075,-1.2035,-1.203,-1.2015,-1.1984,-1.1965,-1.194,-1.1911,-1.1897,-1.1873,-1.1851,-1.1814,-1.1813,-1.1795,-1.1784,-1.1767,-1.1745,-1.1768,-1.1767,-1.1763,-1.1706,-1.1706,-1.1702,-1.174,-1.174,-1.1739,-1.1708,0,-1.2052,-1.2008,-1.1994,-1.1957,-1.1934,-1.1923,-1.1901,-1.1879,-1.1864,-1.1841,-1.1824,-1.1798,-1.1799,-1.1788,-1.1771,-1.1751,-1.1733,-1.1753,-1.1717,-1.1716,-1.1723,-1.1696,-1.1696,-1.1669,-1.1704,-1.1703,-1.1703,0,-1.2019,-1.1996,-1.1957,-1.1928,-1.1917,-1.1898,-1.1869,-1.1849,-1.1822,-1.1812,-1.1792,-1.1782,-1.1753,-1.176,-1.172,-1.1734,-1.1718,-1.1706,-1.1705,-1.17,-1.1708,-1.1689,-1.166,-1.1655,-1.1696,-1.1697,-1.1697,0,-1.201,-1.1969,-1.194,-1.1928,-1.1893,-1.188,-1.1865,-1.1839,-1.1822,-1.1797,-1.1785,-1.1757,-1.174,-1.1718,-1.1699,-1.1706,-1.1659,-1.1665,-1.1649,-1.1649,-1.1639,-1.1639,-1.1605,-1.1631,-1.1631,-1.1631,-1.1631,0,-1.1985,-1.1961,-1.1936,-1.1918,-1.189,-1.1873,-1.1845,-1.1829,-1.1807,-1.1784,-1.1773,-1.1751,-1.1729,-1.1704,-1.1689,-1.1657,-1.165,-1.164,-1.1636,-1.164,-1.1641,-1.1629,-1.163,-1.163,-1.163,-1.163,-1.1631,0,-1.1971,-1.1953,-1.192,-1.189,-1.1882,-1.1863,-1.1836,-1.1817,-1.1802,-1.1773,-1.1765,-1.174,-1.171,-1.169,-1.1651,-1.1641,-1.1605,-1.1603,-1.1614,-1.1612,-1.1597,-1.1598,-1.1552,-1.1544,-1.1577,-1.1576,-1.1576,0,-1.1956,-1.1937,-1.1905,-1.189,-1.1874,-1.185,-1.1832,-1.1814,-1.1796,-1.1764,-1.1749,-1.1718,-1.1693,-1.1645,-1.1622,-1.1592,-1.1587,-1.1573,-1.1583,-1.1587,-1.1585,-1.1586,-1.1583,-1.1572,-1.1571,-1.1571,-1.1571,0,-1.193,-1.1922,-1.1898,-1.187,-1.185,-1.1827,-1.1804,-1.1791,-1.1769,-1.1749,-1.1718,-1.1699,-1.1659,-1.1628,-1.1596,-1.1578,-1.157,-1.1568,-1.1563,-1.1566,-1.1573,-1.1567,-1.1609,-1.1569,-1.1569,-1.1569,-1.157,-1.157,-1.1913,-1.1896,-1.187,-1.1843,-1.1824,-1.1802,-1.1783,-1.1765,-1.1739,-1.1706,-1.1697,-1.1665,-1.1637,-1.1593,-1.1575,-1.1548,-1.1549,-1.1541,-1.1539,-1.1537,-1.1536,-1.1578,-1.1542,-1.1542,-1.1542,-1.1542,-1.1542,0,-1.1886,-1.1869,-1.1844,-1.1812,-1.179,-1.1786,-1.176,-1.1741,-1.1713,-1.1689,-1.1664,-1.1628,-1.1598,-1.1572,-1.1541,-1.1524,-1.1519,-1.1516,-1.1516,-1.1512,-1.1538,-1.1545,-1.152,-1.152,-1.152,-1.152,-1.152,-1.152,-1.1869,-1.1838,-1.1827,-1.1785,-1.1768,-1.1737,-1.1722,-1.1701,-1.1682,-1.1642,-1.1617,-1.1601,-1.1576,-1.1542,-1.1513,-1.1506,-1.1494,-1.1491,-1.1484,-1.1508,-1.151,-1.1513,-1.152,-1.1489,-1.1489,-1.146,-1.1459,-1.1459]},{"header":{"parameterUnit":"m.s-1","parameterCategory":1,"la1":30.2991,"la2":30.254,"lo1":-89.0895,"lo2":-89.0444,"dy":0.0017,"dx":0.0017,"nx":28,"ny":28,"refTime":"2025-08-02T09:00:00:Z","depth":0,"parameterNumber":3,"parameterNumberName":"V-component_of_WINDS"},"data":[0,0,0,0,0,0,0,0,0,0,0,0,0,0,0,0,0,0,0,0,0,0,0,0,0,0,0,0,0,0,0,0,0,0,0,0,0,0,0,0,0,0,0,0,0,0,0,0,0,0,0,0,0,0,0,0,0,0,0.1746,0.1747,0,0.1769,0.1769,0.177,0.1741,0.1739,0.1738,0.1737,0.1761,0.1762,0.1764,0,0,0,0,0,0,0,0,0,0,0,0,0,0.1679,0.168,0.1746,0.1747,0.1747,0.1769,0.1769,0.177,0.1741,0.1739,0.1738,0.1737,0.176,0.1762,0.1764,0,0,0,0,0,0,0,0,0,0,0,0,0,0.1706,0.1681,0.1746,0.1735,0.1734,0.1769,0.1769,0.177,0.1741,0.1739,0.1738,0.1736,0.176,0.1762,0.1764,0.1811,0,0,0.1772,0.1773,0,0,0,0,0,0,0,0,0.1704,0.1708,0.1737,0.1736,0.1735,0.175,0.1754,0.1783,0.1741,0.1739,0.1737,0.1736,0.1759,0.1761,0.1769,0.1812,0.1813,0.1772,0.1773,0.1774,0.1775,0,0,0,0,0,0,0,0.1702,0.1707,0.1755,0.1737,0.1736,0.1729,0.1731,0.1759,0.1757,0.1739,0.1737,0.174,0.1758,0.1766,0.1769,0.1813,0.1772,0.1774,0.1775,0.1776,0.1897,0.1898,0,0,0,0,0,0,0.1702,0.1706,0.1755,0.1756,0.1715,0.1732,0.1734,0.1747,0.1757,0.1757,0.1741,0.1738,0.1763,0.1766,0.177,0.1825,0.1774,0.1777,0.1778,0.1895,0.1897,0.1899,0,0,0,0,0,0,0.17,0.1706,0.1754,0.173,0.1736,0.1735,0.175,0.1748,0.1757,0.1759,0.1758,0.175,0.1762,0.1766,0.1801,0.1826,0.1778,0.178,0.1893,0.1895,0.1898,0.1937,0,0,0,0,0,0,0.1699,0.1706,0.1724,0.1731,0.1737,0.1785,0.1751,0.175,0.1761,0.1758,0.1767,0.1767,0.1761,0.1798,0.1803,0.1828,0.1782,0.1891,0.1894,0.1897,0.1933,0.194,0.1946,0,0,0,0,0,0.1696,0.1733,0.1725,0.1731,0.1759,0.1786,0.179,0.1782,0.1763,0.1781,0.1782,0.1767,0.1822,0.1801,0.1808,0.1834,0.1889,0.1893,0.1897,0.193,0.1939,0.1946,0,0,0,0,0,0,0.1729,0.1734,0.1724,0.1765,0.1775,0.1781,0.1803,0.1791,0.1807,0.1803,0.1793,0.1796,0.1833,0.1836,0.1813,0.1879,0.1852,0.1858,0.1876,0.1884,0.189,0.1889,0.1784,0,0,0,0,0,0.1741,0.1762,0.1766,0.1801,0.1807,0.1804,0.1816,0.1809,0.1819,0.1823,0.1827,0.1838,0.1858,0.1871,0.1889,0.1934,0.1935,0.1954,0.1961,0.1966,0.1971,0.1996,0.2004,0.1912,0.1912,0.1912,0,0,0.1766,0.1771,0.1785,0.1808,0.1815,0.1838,0.1808,0.1833,0.185,0.1827,0.186,0.1864,0.1875,0.1915,0.1932,0.1919,0.1997,0.1972,0.1976,0.1978,0.2001,0.2009,0.2017,0.1914,0.1914,0.1914,0,0,0.1822,0.1829,0.1859,0.1867,0.1878,0.1877,0.1884,0.1892,0.1893,0.1926,0.191,0.193,0.1964,0.1973,0.1982,0.2043,0.203,0.2049,0.2084,0.2108,0.2115,0.2121,0.2144,0.2152,0.2054,0.2054,0.2054,0,0.1852,0.1885,0.1876,0.1903,0.1914,0.1894,0.1925,0.1934,0.195,0.1958,0.1943,0.1986,0.1992,0.2034,0.2049,0.2057,0.2066,0.2048,0.2115,0.2121,0.2127,0.2148,0.2156,0.2057,0.2056,0.2056,0.2056,0,0.1921,0.1945,0.1968,0.1985,0.1998,0.2027,0.2023,0.2037,0.203,0.203,0.2064,0.2071,0.209,0.21,0.2092,0.2141,0.2132,0.2116,0.2089,0.2138,0.2158,0.2166,0.206,0.2059,0.2058,0.2058,0,0,0.1999,0.2011,0.202,0.2027,0.2039,0.2057,0.2085,0.2104,0.2117,0.213,0.2153,0.2183,0.2168,0.2179,0.2172,0.2193,0.2242,0.2174,0.2174,0.2187,0.2296,0.2309,0.2318,0.2233,0.2234,0.2236,0.2296,0,0.2056,0.2105,0.2098,0.2145,0.2167,0.2149,0.2173,0.2183,0.2184,0.2203,0.2204,0.2225,0.2204,0.221,0.223,0.2232,0.2264,0.2227,0.2255,0.2256,0.2253,0.2329,0.2342,0.2398,0.2303,0.2304,0.2305,0,0.2129,0.2145,0.2194,0.2202,0.2211,0.2234,0.2251,0.2269,0.228,0.2279,0.2291,0.2281,0.231,0.2282,0.2321,0.2297,0.2308,0.231,0.2312,0.2315,0.2284,0.2333,0.2416,0.2424,0.2317,0.2316,0.2316,0,0.2182,0.2215,0.2248,0.2255,0.2266,0.2282,0.2288,0.2297,0.231,0.2325,0.2333,0.2351,0.2362,0.2376,0.2372,0.2352,0.2412,0.2384,0.2413,0.2413,0.2426,0.2426,0.2512,0.2433,0.2433,0.2433,0.2433,0,0.2246,0.2277,0.2272,0.2293,0.2327,0.2319,0.2353,0.2357,0.2365,0.2387,0.2373,0.2393,0.2385,0.2406,0.2402,0.2436,0.244,0.2441,0.2439,0.2442,0.2442,0.2449,0.2445,0.2435,0.2435,0.2434,0.2434,0,0.2311,0.2308,0.2344,0.2352,0.2354,0.2379,0.2386,0.2406,0.2406,0.2433,0.2439,0.2439,0.2462,0.2459,0.2484,0.2482,0.2523,0.2517,0.252,0.2519,0.2548,0.2545,0.2642,0.2654,0.2567,0.2568,0.2569,0,0.2352,0.2376,0.2386,0.2399,0.2406,0.2428,0.244,0.2433,0.2447,0.2462,0.248,0.2502,0.2519,0.2556,0.2559,0.2578,0.2573,0.2605,0.2575,0.2578,0.2574,0.2572,0.2575,0.2611,0.2612,0.2613,0.2613,0,0.2427,0.2425,0.2443,0.2462,0.2477,0.2492,0.2505,0.2516,0.2511,0.2527,0.2551,0.2564,0.259,0.2612,0.2631,0.2636,0.2624,0.2623,0.2631,0.2634,0.2634,0.2635,0.2536,0.2621,0.262,0.2619,0.2619,0.2619,0.2481,0.2501,0.2512,0.2534,0.2543,0.2555,0.2574,0.2577,0.2596,0.2617,0.2612,0.2639,0.265,0.2673,0.2681,0.2702,0.269,0.2701,0.2704,0.2707,0.271,0.2631,0.2705,0.2705,0.2705,0.2704,0.2704,0,0.2555,0.2561,0.2581,0.26,0.2617,0.2604,0.2618,0.2633,0.2657,0.2668,0.2685,0.2713,0.2734,0.2738,0.2758,0.2774,0.277,0.278,0.2779,0.278,0.272,0.2711,0.2784,0.2784,0.2784,0.2784,0.2784,0.2784,0.2596,0.263,0.2629,0.2667,0.2673,0.2699,0.2708,0.272,0.2729,0.276,0.2778,0.278,0.2789,0.281,0.2829,0.283,0.2838,0.2851,0.2849,0.2793,0.2785,0.2777,0.2769,0.2853,0.2853,0.2908,0.2909,0.2909]}]]